Location: Demmingen
(48.6757°N, 10.4375°E)
Time: 03:41:20
(UTC+00:00)

Okean 1-7 - Pass Details

Date: 23 May 2024
Orbit: 579 x 604 km, 82.5° (Epoch: 13 June)

Event Time Altitude Azimuth Distance (km) Brightness Sun altitude
Exits shadow 01:30:21 20° 243° (WSW) 1,406 4.4 -14.4°
Maximum altitude 01:32:26 30° 289° (WNW) 1,097 4.2 -14.2°
Drops below altitude 10° 01:36:15 10° 350° (N) 1,958 6.3 -13.9°
Sets 01:38:43 0° 2° (N) 2,869 7.5 -13.6°
